Location: Austin
(30.3000°N, 97.7500°W)
Time: 13:50:13
(UTC-05:00)

SL-8 Rocket - Visible Passes

Search period start: 30 April 2025 00:00
Search period end: 10 May 2025 00:00
Orbit: 957 x 989 km, 82.9° (Epoch: 28 April)

Date Brightness Start Highest point End Pass type
(mag) Time Alt. Az. Time Alt. Az. Time Alt. Az.
30 Apr 6.2 01:42:06 10° NNW 01:43:41 19° NNW 01:43:41 19° NNW visible
01 May 6.3 00:22:19 10° NNE 00:23:35 15° NNE 00:23:35 15° NNE visible
01 May 6.3 02:07:12 10° NNW 02:08:12 15° NNW 02:08:12 15° NNW visible
02 May 6.0 00:46:11 10° N 00:48:06 20° NNE 00:48:06 20° NNE visible
03 May 6.0 01:10:36 10° N 01:12:38 22° N 01:12:38 22° N visible
03 May 6.2 23:51:19 10° NNE 23:52:33 14° NE 23:52:33 14° NE visible
04 May 6.1 01:35:30 10° NNW 01:37:10 19° NNW 01:37:10 19° NNW visible
05 May 5.9 00:14:54 10° NNE 00:17:06 21° NNE 00:17:06 21° NNE visible
05 May 6.4 02:01:04 10° NW 02:01:42 12° NW 02:01:42 12° NW visible
06 May 5.8 00:39:09 10° N 00:41:39 26° N 00:41:39 26° N visible
06 May 6.2 23:20:30 10° NE 23:21:36 13° NE 23:21:36 13° NE visible
07 May 5.9 01:03:53 10° NNW 01:06:13 24° NNW 01:06:13 24° NNW visible
07 May 5.8 23:43:42 10° NNE 23:46:11 22° NE 23:46:11 22° NE visible
08 May 6.2 01:29:10 10° NNW 01:30:47 17° NW 01:30:47 17° NW visible
09 May 5.5 00:07:45 10° N 00:10:46 30° NNE 00:10:46 30° NNE visible
09 May 6.1 22:50:03 10° NE 22:50:45 11° NE 22:50:45 11° NE visible
